This demonstration page uses our WeatherBlox Daily Observations layout. Learn more.

Left ArrowRight Arrow

34.16533, -84.80231

Hourly Observations for July 24, 2020

Temp ( °F °C ) Dew Point ( °F °C ) Humidity (%) Winds ( mph kmh ) Pressure ( in mb ) Visibility ( mi km ) Precip ( " mm )
12:53 am 00:53 Clear 76 24.4 69 20.6 79 79 Calm 30.11 1020 10 16 0.00 0.00
1:53 am 01:53 Clear 73 22.8 69 20.6 87 87 Calm 30.11 1020 10 16 0.00 0.00
2:53 am 02:53 Clear 73 22.8 69 20.6 87 87 Calm 30.11 1020 10 16 0.00 0.00
3:53 am 03:53 Clear 71 21.7 68 20 90 90 Calm 30.10 1019 8 13 0.00 0.00
4:53 am 04:53 Clear 70 21.1 67 19.4 90 90 Calm 30.11 1020 8 13 0.00 0.00
5:53 am 05:53 Clear 72 22.2 69 20.6 91 91 Calm 30.12 1020 10 16 0.00 0.00
6:53 am 06:53 Sunny 72 22.2 69 20.6 91 91 Calm 30.13 1020 8 13 0.00 0.00
7:53 am 07:53 Sunny 74 23.3 70 21.1 88 88 Calm 30.14 1021 9 14 0.00 0.00
8:53 am 08:53 Sunny 76 24.4 69 20.6 79 79 Calm 30.16 1021 10 16 0.00 0.00
9:53 am 09:53 Sunny 78 25.6 70 21.1 76 76 Calm 30.18 1022 10 16 0.00 0.00
10:53 am 10:53 Partly Cloudy 80 26.7 71 21.7 74 74 NE 3 6 30.19 1022 10 16 0.00 0.00
11:53 am 11:53 Sunny 80 26.7 71 21.7 74 74 Calm 30.19 1023 10 16 0.00 0.00
12:53 pm 12:53 Sunny 83 28.3 71 21.7 67 67 SE 3 6 30.18 1022 7 11 0.00 0.00
1:53 pm 13:53 Mostly Sunny 84 28.9 71 21.7 65 65 Calm 30.16 1022 10 16 0.00 0.00
2:53 pm 14:53 Partly Cloudy 87 30.6 72 22.2 61 61 Calm 30.13 1020 10 16 0.00 0.00
3:53 pm 15:53 Sunny 88 31.1 72 22.2 59 59 S 8 13 30.11 1020 10 16 0.00 0.00
4:53 pm 16:53 Mostly Sunny 90 32.2 70 21.1 52 52 S 5 7 30.10 1019 10 16 0.00 0.00
5:53 pm 17:53 Mostly Sunny 89 31.7 70 21.1 53 53 VRB 5 7 30.09 1019 10 16 0.00 0.00
6:25 pm 18:25 Partly Cloudy with Nearby Thunderstorms 89 31.7 69 20.6 52 52 Calm 30.08 1019 10 16 0.00 0.00
6:53 pm 18:53 Partly Cloudy with Thunderstorms 88 31.1 70 21.1 55 55 VRB 5 7 30.09 1019 10 16 0.00 0.00
7:12 pm 19:12 Sunny with Nearby Thunderstorms 87 30.6 69 20.6 55 55 Calm 30.09 1019 10 16 0.00 0.00
7:46 pm 19:46 Mostly Sunny 84 28.9 68 20 59 59 VRB 3 6 30.10 1019 10 16 0.00 0.00
7:53 pm 19:53 Mostly Sunny 83 28.3 68 20 61 61 NNE 3 6 30.10 1019 10 16 0.00 0.00
8:53 pm 20:53 Clear 80 26.7 69 20.6 69 69 Calm 30.11 1020 10 16 0.00 0.00
9:53 pm 21:53 Clear 76 24.4 70 21.1 82 82 Calm 30.11 1020 10 16 0.00 0.00
10:53 pm 22:53 Clear 77 25 71 21.7 82 82 Calm 30.13 1020 10 16 0.00 0.00
11:53 pm 23:53 Clear 77 25 71 21.7 82 82 Calm 30.13 1020 10 16 0.00 0.00

Powered by AerisWeather